{"data":{"norad_id":65286,"intl_designator":"2025-184P","name":"STARLINK-35048","alt_names":[],"object_type":"PAYLOAD","status":"ACTIVE","operator":null,"country":"US","launch_date":"2025-08-22","launch_site_code":"AFWTR","launch_vehicle":null,"mission":null,"orbit_class":"UNKNOWN","rcs_meters":null,"size_class":null,"mass_kg":null,"dimensions":null,"purposes":["comms"],"wikipedia_slug":null,"has_3d_model":false,"image_url":null,"decayed_at":null,"tle_current":{"epoch":"2026-09-20T20:23:21.579648Z","epoch_age_seconds":87274,"freshness":"FRESH","line1":"1 65286U 25184P   26263.84955532  .00018346  00000+0  56871-3 0  9998","line2":"2 65286  97.2837 311.7496 0002204  86.1258 274.0236 15.33472650 60729","mean_motion":15.3347265,"eccentricity":0.0002204,"inclination_deg":97.2837,"raan_deg":311.7496,"arg_perigee_deg":86.1258,"mean_anomaly_deg":274.0236,"bstar":0.00056871,"rev_number":6072,"period_min":93.904511436836,"perigee_km":463.9525797886,"apogee_km":466.96923774678,"semimajor_km":6843.5979087677,"source":"CELESTRAK","updated_at":"2026-09-21T09:00:35.566308Z"}}}